K4HG-2 Weather Reports


Display with metric or nautical units.
time (UTC)temp
F
wind
direction
speed
MPH
gust
MPH
rain 1hr
in
rain 24hr
in
rain mn
in
humidity
%
barometer
mb
20170326184516 80 112 8.0 10.0 0.00 0.00 0.00 74 1018.4
20170326184215 80 136 2.0 10.0 0.00 0.00 0.00 75 1018.4
20170326183915 80 157 3.0 11.0 0.00 0.00 0.00 74 1018.4
20170326183616 80 108 6.0 11.0 0.00 0.00 0.00 76 1018.4
20170326183315 80 102 6.0 8.0 0.00 0.00 0.00 76 1018.5
20170326183016 79 130 1.0 10.0 0.00 0.00 0.00 77 1018.5
20170326182715 79 156 2.0 10.0 0.00 0.00 0.00 77 1018.6
20170326182416 79 113 5.0 11.0 0.00 0.00 0.00 76 1018.6
20170326182115 80 175 8.0 11.0 0.00 0.00 0.00 75 1018.6
20170326181816 80 54 1.0 13.0 0.00 0.00 0.00 75 1018.6
20170326181516 79 92 6.0 11.0 0.00 0.00 0.00 74 1018.7
20170326181216 80 133 7.0 11.0 0.00 0.00 0.00 74 1018.7
20170326180916 80 144 3.0 11.0 0.00 0.00 0.00 74 1018.8
20170326180616 80 149 9.0 11.0 0.00 0.00 0.00 74 1018.8
20170326180316 79 97 8.0 13.0 0.00 0.00 0.00 74 1018.8
20170326180016 80 108 7.0 11.0 0.00 0.00 0.00 74 1018.8
20170326175716 80 111 4.0 11.0 0.00 0.00 0.00 74 1018.8
20170326175416 80 181 8.0 9.0 0.00 0.00 0.00 76 1018.9
20170326175116 79 53 3.0 9.0 0.00 0.00 0.00 76 1018.9
20170326174816 80 112 2.0 7.0 0.00 0.00 0.00 76 1018.9
20170326174515 80 147 6.0 10.0 0.00 0.00 0.00 76 1019.0
20170326174216 80 129 5.0 10.0 0.00 0.00 0.00 76 1019.0
20170326173916 79 98 10.0 12.0 0.00 0.00 0.00 77 1019.0
20170326173615 79 105 5.0 12.0 0.00 0.00 0.00 74 1019.1
20170326173315 79 130 3.0 10.0 0.00 0.00 0.00 73 1019.1
20170326173016 79 118 2.0 13.0 0.00 0.00 0.00 73 1019.1
20170326172716 80 139 6.0 13.0 0.00 0.00 0.00 75 1019.1
20170326172416 79 85 3.0 13.0 0.00 0.00 0.00 73 1019.2
20170326172115 79 104 5.0 13.0 0.00 0.00 0.00 74 1019.3
20170326171816 79 120 7.0 11.0 0.00 0.00 0.00 76 1019.2
20170326171516 79 144 5.0 12.0 0.00 0.00 0.00 76 1019.3
20170326171216 80 143 7.0 12.0 0.00 0.00 0.00 75 1013.8
20170326170916 80 130 5.0 11.0 0.00 0.00 0.00 73 1019.3
20170326170616 79 142 8.0 11.0 0.00 0.00 0.00 73 1019.4
20170326170316 80 135 4.0 16.0 0.00 0.00 0.00 73 1019.4
20170326170015 79 101 8.0 12.0 0.00 0.00 0.00 73 1019.4
20170326165716 79 140 5.0 12.0 0.00 0.00 0.00 75 991.6
20170326165415 79 108 5.0 16.0 0.00 0.00 0.00 75 1019.5
20170326165116 79 98 3.0 16.0 0.00 0.00 0.00 75 1019.5
20170326164815 79 126 4.0 15.0 0.00 0.00 0.00 75 1019.5
20170326164516 79 120 7.0 13.0 0.00 0.00 0.00 74 1019.5
20170326164215 79 109 6.0 13.0 0.00 0.00 0.00 75 1019.0
20170326163916 79 146 3.0 13.0 0.00 0.00 0.00 76 1019.2
20170326163615 79 88 5.0 13.0 0.00 0.00 0.00 75 1019.6
20170326163316 79 130 5.0 17.0 0.00 0.00 0.00 73 1019.6
20170326163016 79 118 5.0 12.0 0.00 0.00 0.00 75 1019.6
20170326162715 79 104 6.0 12.0 0.00 0.00 0.00 78 1019.6
20170326162416 79 171 8.0 14.0 0.00 0.00 0.00 79 1019.6
20170326162116 79 130 6.0 14.0 0.00 0.00 0.00 79 1019.7
20170326161816 79 157 5.0 15.0 0.00 0.00 0.00 80 1019.7
20170326161516 79 149 4.0 13.0 0.00 0.00 0.00 79 1019.7
20170326161216 79 97 10.0 13.0 0.00 0.00 0.00 79 1019.8
20170326160915 79 99 7.0 13.0 0.00 0.00 0.00 79 1019.8
20170326160616 79 99 9.0 13.0 0.00 0.00 0.00 77 1019.8
20170326160316 79 157 6.0 11.0 0.00 0.00 0.00 78 1019.8
20170326160016 79 102 10.0 11.0 0.00 0.00 0.00 78 1019.8
20170326155716 79 109 4.0 11.0 0.00 0.00 0.00 79 1019.8
20170326155416 79 122 8.0 14.0 0.00 0.00 0.00 80 1019.8
20170326155116 79 112 5.0 14.0 0.00 0.00 0.00 79 1019.8
20170326154816 79 116 7.0 12.0 0.00 0.00 0.00 79 1019.9
20170326154516 79 149 4.0 13.0 0.00 0.00 0.00 78 1019.9
20170326154215 78 115 6.0 13.0 0.00 0.00 0.00 78 1019.9
20170326153915 78 115 4.0 10.0 0.00 0.00 0.00 79 1019.9
20170326153616 79 136 4.0 10.0 0.00 0.00 0.00 80 1019.9
20170326153316 78 127 2.0 11.0 0.00 0.00 0.00 79 1019.9
20170326153015 79 81 5.0 14.0 0.00 0.00 0.00 80 1019.9
20170326152716 79 119 6.0 14.0 0.00 0.00 0.00 79 1019.9
20170326152416 79 98 9.0 10.0 0.00 0.00 0.00 78 1019.9
20170326152116 79 90 7.0 10.0 0.00 0.00 0.00 80 1019.8
20170326151816 79 139 1.0 13.0 0.00 0.00 0.00 79 1019.9
20170326151515 79 111 4.0 13.0 0.00 0.00 0.00 78 1019.8
20170326151216 79 135 8.0 13.0 0.00 0.00 0.00 78 1019.8
20170326150916 79 151 6.0 15.0 0.00 0.00 0.00 78 1019.8
20170326150616 79 122 7.0 15.0 0.00 0.00 0.00 78 1019.8
20170326150315 79 157 4.0 12.0 0.00 0.00 0.00 79 1019.8
20170326150016 79 98 7.0 10.0 0.00 0.00 0.00 80 1019.8
20170326145716 79 102 4.0 10.0 0.00 0.00 0.00 79 1019.8
20170326145416 79 118 7.0 12.0 0.00 0.00 0.00 79 1019.8
20170326145116 79 111 3.0 12.0 0.00 0.00 0.00 80 1019.8
20170326144815 78 144 1.0 12.0 0.00 0.00 0.00 80 1019.7
20170326144516 78 115 4.0 10.0 0.00 0.00 0.00 80 1019.8
20170326144215 78 106 8.0 10.0 0.00 0.00 0.00 81 1019.7
20170326143916 78 81 3.0 13.0 0.00 0.00 0.00 81 1019.7
20170326143616 78 129 6.0 13.0 0.00 0.00 0.00 80 1019.7
20170326143316 78 108 5.0 12.0 0.00 0.00 0.00 79 1019.8
20170326143017 78 94 5.0 11.0 0.00 0.00 0.00 80 1019.7
20170326142715 78 112 8.0 11.0 0.00 0.00 0.00 79 1019.8
20170326142416 78 126 4.0 14.0 0.00 0.00 0.00 80 1019.8
20170326142116 78 91 8.0 14.0 0.00 0.00 0.00 80 1019.8
20170326141816 78 157 6.0 9.0 0.00 0.00 0.00 80 1019.8
20170326141515 78 122 5.0 9.0 0.00 0.00 0.00 81 1019.8
20170326141215 78 132 3.0 9.0 0.00 0.00 0.00 80 1019.9
20170326140915 78 123 6.0 9.0 0.00 0.00 0.00 79 1019.9
20170326140616 78 94 3.0 9.0 0.00 0.00 0.00 80 1019.9
20170326140315 78 102 3.0 12.0 0.00 0.00 0.00 81 1019.9
20170326140015 78 126 7.0 9.0 0.00 0.00 0.00 82 1019.8
20170326135716 78 91 3.0 9.0 0.00 0.00 0.00 82 1019.8
20170326135416 78 132 4.0 13.0 0.00 0.00 0.00 84 1019.8
20170326135115 78 109 2.0 13.0 0.00 0.00 0.00 84 1019.8
20170326134816 77 151 5.0 13.0 0.00 0.00 0.00 84 1019.7
20170326134516 77 125 9.0 14.0 0.00 0.00 0.00 83 1019.6
20170326134216 77 111 9.0 14.0 0.00 0.00 0.00 84 1019.6
20170326133916 77 111 5.0 12.0 0.00 0.00 0.00 85 1019.5
20170326133615 77 127 2.0 12.0 0.00 0.00 0.00 86 1019.5
20170326133315 77 151 1.0 11.0 0.00 0.00 0.00 86 1019.5
20170326133016 77 108 5.0 9.0 0.00 0.00 0.00 86 1019.5
20170326132715 77 122 7.0 9.0 0.00 0.00 0.00 86 1019.4
20170326132416 77 139 4.0 9.0 0.00 0.00 0.00 86 1019.4
20170326132116 77 168 4.0 9.0 0.00 0.00 0.00 87 1019.4
20170326131815 77 127 2.0 7.0 0.00 0.00 0.00 87 1019.4
20170326131516 77 165 2.0 10.0 0.00 0.00 0.00 89 1019.4
20170326131215 77 113 7.0 10.0 0.00 0.00 0.00 90 1019.3
20170326130916 76 109 4.0 11.0 0.00 0.00 0.00 90 1019.3
20170326130616 77 161 4.0 11.0 0.00 0.00 0.00 90 1019.3
20170326130316 76 98 6.0 10.0 0.00 0.00 0.00 91 1019.2
20170326130016 76 125 6.0 10.0 0.00 0.00 0.00 91 1019.2
20170326125715 76 101 4.0 10.0 0.00 0.00 0.00 92 1019.2
20170326125416 76 94 4.0 7.0 0.00 0.00 0.00 93 1019.2
20170326125116 76 130 3.0 7.0 0.00 0.00 0.00 94 1019.2
20170326124816 76 94 1.0 6.0 0.00 0.00 0.00 95 1019.2
20170326124516 75 129 2.0 7.0 0.00 0.00 0.00 96 1019.2
20170326124216 75 63 2.0 7.0 0.00 0.00 0.00 96 1019.2
20170326123915 75 90 3.0 6.0 0.00 0.00 0.00 97 1019.1
20170326123616 75 90 0.0 6.0 0.00 0.00 0.00 97 1019.2
20170326123316 75 33 0.0 6.0 0.00 0.00 0.00 98 1019.1
20170326123016 74 99 4.0 5.0 0.00 0.00 0.00 98 1019.1
20170326122715 74 165 2.0 5.0 0.00 0.00 0.00 99 1019.2
20170326122415 74 8 0.0 7.0 0.00 0.00 0.00 100 1019.1
20170326122116 74 127 1.0 7.0 0.00 0.00 0.00 100 1019.0
20170326121815 74 120 1.0 6.0 0.00 0.00 0.00 100 1019.0
20170326121516 74 102 2.0 5.0 0.00 0.00 0.00 100 1019.0
20170326121215 73 82 0.0 5.0 0.00 0.00 0.00 100 1018.9
20170326120915 73 105 1.0 6.0 0.00 0.00 0.00 100 1018.8
20170326120616 73 125 0.0 6.0 0.00 0.00 0.00 100 1018.9
20170326120316 73 132 5.0 3.0 0.00 0.00 0.00 100 1018.8
20170326120016 73 64 1.0 5.0 0.00 0.00 0.00 100 1018.8
20170326115716 73 102 1.0 5.0 0.00 0.00 0.00 100 1018.7
20170326115415 73 71 4.0 4.0 0.00 0.00 0.00 100 1018.7
20170326115116 73 88 0.0 4.0 0.00 0.00 0.00 100 1018.7
20170326114816 73 59 0.0 4.0 0.00 0.00 0.00 100 1018.7
20170326114516 73 108 0.0 4.0 0.00 0.00 0.00 100 1018.7
20170326114216 73 108 0.0 4.0 0.00 0.00 0.00 100 1018.7
20170326113916 73 97 1.0 4.0 0.00 0.00 0.00 100 1018.7
20170326113616 73 101 2.0 4.0 0.00 0.00 0.00 100 1018.7
20170326113316 73 63 1.0 3.0 0.00 0.00 0.00 100 1018.7
20170326113015 73 85 0.0 4.0 0.00 0.00 0.00 100 1018.6
20170326112716 73 36 0.0 4.0 0.00 0.00 0.00 100 1018.6
20170326112415 73 84 0.0 4.0 0.00 0.00 0.00 100 1018.6
20170326111817 73 106 0.0 3.0 0.00 0.00 0.00 100 1018.5
20170326111515 73 80 0.0 6.0 0.00 0.00 0.00 100 1018.4
20170326111215 73 47 0.0 6.0 0.00 0.00 0.00 100 1018.4
20170326110916 73 53 0.0 5.0 0.00 0.00 0.00 100 1018.4
20170326110616 73 94 0.0 5.0 0.00 0.00 0.00 100 1018.4
20170326110316 73 91 0.0 4.0 0.00 0.00 0.00 100 1018.3
20170326110016 73 84 0.0 5.0 0.00 0.00 0.00 100 1018.3
20170326105716 73 78 0.0 5.0 0.00 0.00 0.00 100 1018.3
20170326105416 73 123 3.0 5.0 0.00 0.00 0.00 100 1018.2
20170326105116 73 102 1.0 5.0 0.00 0.00 0.00 100 1018.2
20170326104815 73 54 1.0 4.0 0.00 0.00 0.00 100 1018.2
20170326104516 73 87 1.0 2.0 0.00 0.00 0.00 100 1018.2
20170326104216 73 113 3.0 2.0 0.00 0.00 0.00 100 1018.2
20170326103915 73 135 1.0 3.0 0.00 0.00 0.00 100 1018.2
20170326103616 73 59 0.0 3.0 0.00 0.00 0.00 100 1018.2
20170326103316 73 112 0.0 4.0 0.00 0.00 0.00 100 1018.2
20170326103015 73 52 0.0 4.0 0.00 0.00 0.00 100 1018.1
20170326102716 73 135 1.0 4.0 0.00 0.00 0.00 100 1018.2
20170326102415 73 126 2.0 6.0 0.00 0.00 0.00 100 1018.1
20170326101816 73 90 0.0 5.0 0.00 0.00 0.00 100 1018.1
20170326101515 73 118 0.0 4.0 0.00 0.00 0.00 100 1018.1
20170326101216 73 126 2.0 4.0 0.00 0.00 0.00 100 1018.1
20170326100916 73 82 0.0 4.0 0.00 0.00 0.00 100 1018.1
20170326100616 73 85 0.0 4.0 0.00 0.00 0.00 99 1018.1
20170326100316 73 71 0.0 4.0 0.00 0.00 0.00 99 1018.0
20170326100016 73 120 1.0 6.0 0.00 0.00 0.00 99 1018.1
20170326095715 73 132 2.0 6.0 0.00 0.00 0.00 99 1018.0
20170326095416 73 104 1.0 7.0 0.00 0.00 0.00 99 1018.0
20170326095116 73 84 0.0 7.0 0.00 0.00 0.00 99 1018.0
20170326094815 73 129 4.0 9.0 0.00 0.00 0.00 99 1018.0
20170326094516 73 129 4.0 8.0 0.00 0.00 0.00 100 1018.0
20170326094216 73 95 2.0 8.0 0.00 0.00 0.00 100 1018.0
20170326093916 73 116 3.0 9.0 0.00 0.00 0.00 100 1018.0
20170326093615 73 130 1.0 9.0 0.00 0.00 0.00 100 1017.9
20170326093315 73 115 3.0 8.0 0.00 0.00 0.00 100 1017.9
20170326093016 73 102 0.0 10.0 0.00 0.00 0.00 100 1017.9
20170326092716 73 112 3.0 10.0 0.00 0.00 0.00 100 1017.9
20170326092415 73 84 4.0 8.0 0.00 0.00 0.00 100 1017.9
20170326092116 73 97 4.0 8.0 0.00 0.00 0.00 100 1018.0
20170326091816 73 125 4.0 5.0 0.00 0.00 0.00 100 1017.9
20170326091515 73 109 1.0 6.0 0.00 0.00 0.00 100 1017.9
20170326091216 73 80 4.0 6.0 0.00 0.00 0.00 100 1017.9
20170326090916 73 81 2.0 4.0 0.00 0.00 0.00 100 1017.9
20170326090616 73 78 1.0 4.0 0.00 0.00 0.00 100 1017.8
20170326090316 73 78 1.0 5.0 0.00 0.00 0.00 100 1017.8
20170326090016 73 135 2.0 3.0 0.00 0.00 0.00 100 1017.8
20170326085715 73 102 4.0 3.0 0.00 0.00 0.00 100 1017.8
20170326085415 73 102 0.0 3.0 0.00 0.00 0.00 100 1017.8
20170326085116 73 102 0.0 3.0 0.00 0.00 0.00 100 1017.8
20170326084816 73 82 0.0 3.0 0.00 0.00 0.00 100 1017.8
20170326084516 73 59 0.0 1.0 0.00 0.00 0.00 100 1017.8
20170326084216 73 35 0.0 1.0 0.00 0.00 0.00 100 1017.9
20170326083916 73 63 0.0 3.0 0.00 0.00 0.00 100 1017.9
20170326083616 73 94 0.0 3.0 0.00 0.00 0.00 100 1017.9
20170326083316 73 109 1.0 2.0 0.00 0.00 0.00 100 1017.9
20170326083016 73 46 0.0 0.0 0.00 0.00 0.00 100 1017.9
20170326082716 73 30 0.0 0.0 0.00 0.00 0.00 100 1017.9
20170326082415 73 30 0.0 3.0 0.00 0.00 0.00 100 1018.0
20170326082116 73 30 0.0 3.0 0.00 0.00 0.00 100 1018.0
20170326081815 73 60 1.0 2.0 0.00 0.00 0.00 100 1018.0
20170326081515 73 81 0.0 4.0 0.00 0.00 0.00 100 1017.9
20170326081217 73 97 0.0 4.0 0.00 0.00 0.00 100 1018.0
20170326080917 73 74 1.0 3.0 0.00 0.00 0.00 100 1018.0
20170326080616 73 108 1.0 3.0 0.00 0.00 0.00 100 1018.0
20170326080315 74 90 0.0 0.0 0.00 0.00 0.00 100 1018.0
20170326080016 73 32 0.0 2.0 0.00 0.00 0.00 100 1018.1
20170326075716 74 32 0.0 2.0 0.00 0.00 0.00 100 1018.0
20170326075416 73 32 0.0 0.0 0.00 0.00 0.00 100 1018.1
20170326075115 74 84 0.0 0.0 0.00 0.00 0.00 100 1018.1
20170326074816 73 84 0.0 0.0 0.00 0.00 0.00 100 1018.1
20170326074515 74 84 0.0 5.0 0.00 0.00 0.00 100 1018.2
20170326074216 74 84 0.0 5.0 0.00 0.00 0.00 100 1018.3
20170326073916 74 84 0.0 2.0 0.00 0.00 0.00 99 1018.3
20170326073615 74 111 1.0 2.0 0.00 0.00 0.00 99 1018.4
20170326073316 74 47 0.0 4.0 0.00 0.00 0.00 100 1018.4
20170326073015 74 87 0.0 4.0 0.00 0.00 0.00 100 1018.4
20170326072715 74 60 0.0 4.0 0.00 0.00 0.00 100 1018.5
20170326072415 74 57 0.0 4.0 0.00 0.00 0.00 99 1018.4
20170326072116 74 122 4.0 4.0 0.00 0.00 0.00 99 1018.5
20170326071816 74 84 1.0 3.0 0.00 0.00 0.00 99 1018.5
20170326071516 74 82 0.0 4.0 0.00 0.00 0.00 99 1018.5
20170326071216 74 88 0.0 4.0 0.00 0.00 0.00 99 1018.5
20170326070916 74 78 0.0 4.0 0.00 0.00 0.00 99 1018.6
20170326070616 74 87 2.0 4.0 0.00 0.00 0.00 99 1018.5
20170326070316 74 106 0.0 5.0 0.00 0.00 0.00 99 1018.7
20170326070016 74 66 2.0 3.0 0.00 0.00 0.00 99 1018.7
20170326065715 74 99 1.0 3.0 0.00 0.00 0.00 99 1018.7
20170326065416 74 98 1.0 4.0 0.00 0.00 0.00 99 1018.8
20170326065115 74 115 0.0 4.0 0.00 0.00 0.00 99 1018.8
20170326064815 74 59 0.0 5.0 0.00 0.00 0.00 99 1018.9
20170326064516 74 84 1.0 3.0 0.00 0.00 0.00 99 1018.9
20170326064216 74 77 2.0 3.0 0.00 0.00 0.00 99 1018.9
20170326063915 74 104 1.0 5.0 0.00 0.00 0.00 99 1018.9
20170326063616 74 82 0.0 5.0 0.00 0.00 0.00 99 1019.0
20170326063316 74 101 3.0 7.0 0.00 0.00 0.00 99 1019.0
20170326063016 74 118 1.0 6.0 0.00 0.00 0.00 98 1019.0
20170326062715 74 102 0.0 6.0 0.00 0.00 0.00 98 1019.0
20170326062416 74 46 0.0 7.0 0.00 0.00 0.00 98 1019.0
20170326062115 74 135 1.0 7.0 0.00 0.00 0.00 98 1019.1
20170326061815 74 75 3.0 5.0 0.00 0.00 0.00 98 1019.1
20170326061515 74 94 0.0 5.0 0.00 0.00 0.00 98 1019.2
20170326061216 74 106 3.0 5.0 0.00 0.00 0.00 98 1019.2
20170326060915 74 82 0.0 4.0 0.00 0.00 0.00 98 1019.2
20170326060616 74 59 0.0 4.0 0.00 0.00 0.00 98 1019.3
20170326060316 74 54 1.0 5.0 0.00 0.00 0.00 98 1019.3
20170326060016 74 143 3.0 5.0 0.00 0.00 0.00 98 1019.3
20170326055716 74 78 0.0 5.0 0.00 0.00 0.00 97 1019.3
20170326055416 74 98 1.0 6.0 0.00 0.00 0.00 97 1019.3
20170326055116 74 106 3.0 6.0 0.00 0.00 0.00 97 1019.4
20170326054815 74 8 0.0 7.0 0.00 0.00 0.00 97 1019.4
20170326054516 74 167 4.0 8.0 0.00 0.00 0.00 97 1019.4
20170326054216 74 87 2.0 8.0 0.00 0.00 0.00 97 1019.4
20170326053916 74 126 4.0 7.0 0.00 0.00 0.00 97 1019.4
20170326053615 74 68 0.0 7.0 0.00 0.00 0.00 97 1019.5
20170326053316 74 90 2.0 5.0 0.00 0.00 0.00 97 1019.5
20170326053016 74 115 4.0 5.0 0.00 0.00 0.00 97 1019.6
20170326052715 74 54 3.0 5.0 0.00 0.00 0.00 98 1019.6
20170326052416 74 52 0.0 6.0 0.00 0.00 0.00 98 1019.6
20170326052115 74 129 2.0 6.0 0.00 0.00 0.00 98 1019.6
20170326051815 74 90 0.0 7.0 0.00 0.00 0.00 98 1019.6
20170326051516 74 105 3.0 5.0 0.00 0.00 0.00 98 1019.6
20170326051215 74 88 0.0 5.0 0.00 0.00 0.00 98 1019.6
20170326050916 74 113 3.0 5.0 0.00 0.00 0.00 98 1019.6
20170326050615 74 84 1.0 5.0 0.00 0.00 0.00 98 1019.6
20170326050315 74 112 5.0 6.0 0.00 0.00 0.00 98 1019.6
20170326050015 74 109 0.0 7.0 0.00 0.00 0.00 97 1019.6
20170326045716 74 32 0.0 7.0 0.00 0.00 0.00 97 1019.6
20170326045416 74 92 1.0 6.0 0.00 0.00 0.00 97 1019.7
20170326045115 74 77 1.0 6.0 0.00 0.00 0.00 97 1019.6
20170326044816 74 161 0.0 9.0 0.00 0.00 0.00 97 1019.7
20170326044516 74 116 3.0 8.0 0.00 0.00 0.00 97 1019.7
20170326044215 74 113 3.0 8.0 0.00 0.00 0.00 97 1019.7
20170326043916 74 81 0.0 8.0 0.00 0.00 0.00 97 1019.7
20170326043615 74 47 2.0 8.0 0.00 0.00 0.00 97 1019.7
20170326043316 74 52 2.0 6.0 0.00 0.00 0.00 97 1019.7
20170326043016 74 61 0.0 6.0 0.00 0.00 0.00 97 1019.7
20170326042716 74 45 0.0 6.0 0.00 0.00 0.00 97 1019.7
20170326042416 75 137 0.0 8.0 0.00 0.00 0.00 97 1019.8
20170326042115 75 57 1.0 8.0 0.00 0.00 0.00 97 1019.8
20170326041816 75 122 2.0 7.0 0.00 0.00 0.00 97 1019.9
20170326041515 74 153 2.0 7.0 0.00 0.00 0.00 97 1019.8
20170326041215 74 74 2.0 7.0 0.00 0.00 0.00 96 1019.8
20170326040916 74 135 2.0 6.0 0.00 0.00 0.00 96 1019.8
20170326040616 74 105 5.0 6.0 0.00 0.00 0.00 96 1019.8
20170326040316 74 130 3.0 7.0 0.00 0.00 0.00 96 1019.9
20170326040016 74 59 0.0 7.0 0.00 0.00 0.00 96 1019.9
20170326035715 74 88 1.0 7.0 0.00 0.00 0.00 96 1019.9
20170326035416 75 113 2.0 8.0 0.00 0.00 0.00 96 1019.9
20170326035115 74 95 0.0 8.0 0.00 0.00 0.00 96 1020.0
20170326034816 74 97 1.0 8.0 0.00 0.00 0.00 96 1020.0
20170326034516 74 123 2.0 7.0 0.00 0.00 0.00 96 1020.0
20170326034216 74 140 4.0 7.0 0.00 0.00 0.00 96 1020.0
20170326033916 74 129 2.0 7.0 0.00 0.00 0.00 96 1020.0
20170326033616 74 120 5.0 7.0 0.00 0.00 0.00 96 1020.1
20170326033316 74 130 3.0 7.0 0.00 0.00 0.00 96 1020.1
20170326033016 74 85 4.0 9.0 0.00 0.00 0.00 96 1020.1
20170326032715 74 91 6.0 9.0 0.00 0.00 0.00 95 1020.1
20170326032415 74 127 0.0 8.0 0.00 0.00 0.00 95 1020.1
20170326032116 74 74 6.0 8.0 0.00 0.00 0.00 95 1020.1
20170326031816 75 106 4.0 8.0 0.00 0.00 0.00 95 1020.1
20170326031515 75 70 4.0 8.0 0.00 0.00 0.00 95 1020.2
20170326031216 74 75 1.0 8.0 0.00 0.00 0.00 96 1020.2
20170326030916 75 112 5.0 8.0 0.00 0.00 0.00 96 1020.2
20170326030615 74 136 0.0 8.0 0.00 0.00 0.00 96 1020.2
20170326030316 75 129 2.0 8.0 0.00 0.00 0.00 96 1020.2
20170326030015 74 113 1.0 9.0 0.00 0.00 0.00 96 1020.2
20170326025716 74 23 2.0 9.0 0.00 0.00 0.00 96 1020.2
20170326025416 75 102 3.0 9.0 0.00 0.00 0.00 96 1020.1
20170326025115 75 77 3.0 9.0 0.00 0.00 0.00 96 1020.2
20170326024815 75 84 1.0 11.0 0.00 0.00 0.00 96 1020.2
20170326024516 75 122 5.0 8.0 0.00 0.00 0.00 95 1020.2
20170326024216 75 95 2.0 8.0 0.00 0.00 0.00 95 1020.2
20170326023916 75 108 4.0 9.0 0.00 0.00 0.00 95 1020.1
20170326023616 75 143 5.0 9.0 0.00 0.00 0.00 95 1020.2
20170326023316 75 82 1.0 8.0 0.00 0.00 0.00 94 1020.2
20170326023015 75 142 0.0 8.0 0.00 0.00 0.00 94 1020.2
20170326022716 75 133 3.0 8.0 0.00 0.00 0.00 94 1020.2
20170326022415 75 32 0.0 10.0 0.00 0.00 0.00 94 1020.2
20170326022116 75 112 1.0 10.0 0.00 0.00 0.00 94 1020.2
20170326021816 75 106 9.0 8.0 0.00 0.00 0.00 94 1020.2
20170326021516 75 85 5.0 8.0 0.00 0.00 0.00 94 1020.2
20170326021216 75 101 2.0 8.0 0.00 0.00 0.00 93 1020.2
20170326020915 75 67 3.0 7.0 0.00 0.00 0.00 93 1020.2
20170326020616 75 87 0.0 7.0 0.00 0.00 0.00 93 1020.2
20170326020316 75 101 1.0 11.0 0.00 0.00 0.00 93 1020.2
20170326020016 75 126 4.0 11.0 0.00 0.00 0.00 93 1020.1
20170326015715 75 111 3.0 11.0 0.00 0.00 0.00 93 1020.1
20170326015416 75 111 3.0 15.0 0.00 0.00 0.00 93 1020.1
20170326015116 75 104 7.0 15.0 0.00 0.00 0.00 93 1020.1
20170326014815 75 101 0.0 9.0 0.00 0.00 0.00 93 1020.1
20170326014515 75 81 3.0 9.0 0.00 0.00 0.00 93 1020.0
20170326014216 75 149 3.0 9.0 0.00 0.00 0.00 93 1020.0
20170326013916 75 133 3.0 9.0 0.00 0.00 0.00 93 1019.9
20170326013615 75 75 0.0 9.0 0.00 0.00 0.00 93 1019.9
20170326013315 75 142 6.0 10.0 0.00 0.00 0.00 93 1019.9
20170326013016 75 91 5.0 10.0 0.00 0.00 0.00 93 1019.9
20170326012715 75 111 5.0 10.0 0.00 0.00 0.00 92 1019.9
20170326012416 75 92 4.0 8.0 0.00 0.00 0.00 92 1019.9
20170326012116 75 126 3.0 8.0 0.00 0.00 0.00 92 1019.9
20170326011815 75 73 5.0 10.0 0.00 0.00 0.00 92 1019.8
20170326011516 75 98 5.0 12.0 0.00 0.00 0.00 92 1019.8
20170326011216 75 64 3.0 12.0 0.00 0.00 0.00 92 1019.8
20170326010915 75 125 3.0 10.0 0.00 0.00 0.00 91 1019.8
20170326010616 75 82 4.0 10.0 0.00 0.00 0.00 91 1019.7
20170326010316 75 118 3.0 13.0 0.00 0.00 0.00 91 1019.7
20170326010016 75 98 5.0 13.0 0.00 0.00 0.00 90 1019.7
20170326005715 75 112 3.0 13.0 0.00 0.00 0.00 90 1019.7
20170326005416 75 139 2.0 9.0 0.00 0.00 0.00 90 1019.7
20170326005116 75 92 7.0 9.0 0.00 0.00 0.00 90 1019.7
20170326004815 75 116 4.0 12.0 0.00 0.00 0.00 89 1019.7
20170326004516 75 119 4.0 10.0 0.00 0.00 0.00 89 1019.7
20170326004215 75 106 4.0 10.0 0.00 0.00 0.00 89 1019.6
20170326003915 75 123 6.0 15.0 0.00 0.00 0.00 89 1019.7
20170326003616 75 111 4.0 15.0 0.00 0.00 0.00 89 1019.7
20170326003315 75 104 7.0 14.0 0.00 0.00 0.00 89 1019.7
20170326003016 75 116 11.0 11.0 0.00 0.00 0.00 89 1019.7
20170326002716 75 143 4.0 11.0 0.00 0.00 0.00 89 1019.6
20170326002415 75 129 8.0 12.0 0.00 0.00 0.00 89 1019.6
20170326002116 75 112 1.0 12.0 0.00 0.00 0.00 89 1019.5
20170326001816 75 126 6.0 14.0 0.00 0.00 0.00 90 1019.5
20170326001516 75 99 3.0 12.0 0.00 0.00 0.00 91 1019.4
20170326001215 75 105 2.0 12.0 0.00 0.00 0.00 91 1019.5
20170326000916 75 102 3.0 10.0 0.00 0.00 0.00 91 1019.4
20170326000615 75 88 7.0 10.0 0.00 0.00 0.00 91 1019.4
20170326000316 75 119 6.0 11.0 0.00 0.00 0.00 90 1019.4
20170326000016 75 182 4.0 13.0 0.00 0.00 0.00 90 1019.4
20170325235716 75 78 3.0 13.0 0.00 0.00 0.00 90 1019.4
20170325235416 76 147 2.0 14.0 0.00 0.00 0.00 90 1019.5
20170325235117 76 118 4.0 14.0 0.00 0.00 0.00 90 1019.5
20170325234816 76 115 8.0 12.0 0.00 0.00 0.00 89 1019.5
20170325234515 76 119 5.0 11.0 0.00 0.00 0.00 89 1019.5
20170325234216 76 139 4.0 11.0 0.00 0.00 0.00 89 1019.5
20170325233916 76 84 4.0 11.0 0.00 0.00 0.00 88 1019.4
20170325233615 76 82 6.0 11.0 0.00 0.00 0.00 87 1019.5
20170325233315 76 130 3.0 13.0 0.00 0.00 0.00 87 1019.6
20170325233015 76 130 4.0 12.0 0.00 0.00 0.00 86 1019.6
20170325232716 76 129 3.0 12.0 0.00 0.00 0.00 85 1019.5
20170325232416 76 140 3.0 13.0 0.00 0.00 0.00 85 1019.5
20170325232115 76 143 1.0 13.0 0.00 0.00 0.00 85 1019.5
20170325231816 76 104 7.0 18.0 0.00 0.00 0.00 85 1019.4
20170325231515 77 88 6.0 11.0 0.00 0.00 0.00 85 1019.4
20170325231216 76 143 4.0 11.0 0.00 0.00 0.00 84 1019.4
20170325230915 76 119 7.0 11.0 0.00 0.00 0.00 84 1019.4
20170325230615 77 109 7.0 11.0 0.00 0.00 0.00 83 1019.4
20170325230316 77 126 1.0 14.0 0.00 0.00 0.00 83 1019.4
20170325230016 77 88 9.0 15.0 0.00 0.00 0.00 83 1019.4
20170325225715 77 135 3.0 15.0 0.00 0.00 0.00 82 1019.4
20170325225416 77 82 6.0 15.0 0.00 0.00 0.00 82 1019.4
20170325225116 77 130 7.0 15.0 0.00 0.00 0.00 82 1019.5
20170325224816 77 78 7.0 12.0 0.00 0.00 0.00 82 1019.4
20170325224515 77 78 7.0 12.0 0.00 0.00 0.00 81 1019.4
20170325224216 77 71 7.0 12.0 0.00 0.00 0.00 81 1019.4
20170325223916 77 120 6.0 15.0 0.00 0.00 0.00 80 1019.3
20170325223616 77 105 6.0 15.0 0.00 0.00 0.00 79 1019.4
20170325223316 77 116 5.0 14.0 0.00 0.00 0.00 78 1019.4
20170325223016 77 122 6.0 16.0 0.00 0.00 0.00 78 1019.4
20170325222715 77 78 8.0 16.0 0.00 0.00 0.00 78 1019.4
20170325222415 77 116 7.0 13.0 0.00 0.00 0.00 78 1019.4
20170325222116 77 101 5.0 13.0 0.00 0.00 0.00 78 1019.4
20170325221815 77 95 9.0 14.0 0.00 0.00 0.00 78 1019.4
20170325221516 77 104 9.0 13.0 0.00 0.00 0.00 78 1019.4
20170325221216 77 144 5.0 13.0 0.00 0.00 0.00 78 1019.3
20170325220916 77 102 11.0 15.0 0.00 0.00 0.00 77 1019.4
20170325220616 77 108 7.0 15.0 0.00 0.00 0.00 78 1019.4
20170325220315 77 119 9.0 13.0 0.00 0.00 0.00 77 1019.4
20170325220016 77 95 7.0 12.0 0.00 0.00 0.00 77 1019.4
20170325215716 77 150 6.0 12.0 0.00 0.00 0.00 76 1019.4
20170325215415 78 120 5.0 13.0 0.00 0.00 0.00 76 1019.3
20170325215116 78 125 7.0 13.0 0.00 0.00 0.00 76 1019.4
20170325214816 78 109 7.0 15.0 0.00 0.00 0.00 76 1019.4
20170325214515 78 108 6.0 15.0 0.00 0.00 0.00 75 1019.3
20170325214216 78 85 12.0 15.0 0.00 0.00 0.00 76 1019.3
20170325213915 78 113 11.0 11.0 0.00 0.00 0.00 77 1019.4
20170325213616 78 61 6.0 11.0 0.00 0.00 0.00 76 1019.4
20170325213316 78 101 8.0 12.0 0.00 0.00 0.00 77 1019.5
20170325213016 78 92 5.0 14.0 0.00 0.00 0.00 77 1019.5
20170325212716 78 122 5.0 14.0 0.00 0.00 0.00 77 1019.5
20170325212415 78 133 4.0 16.0 0.00 0.00 0.00 77 1019.6
20170325212115 78 123 8.0 16.0 0.00 0.00 0.00 76 1019.6
20170325211816 78 115 12.0 14.0 0.00 0.00 0.00 77 1019.6
20170325211515 79 119 12.0 13.0 0.00 0.00 0.00 76 1019.7
20170325211216 78 151 6.0 13.0 0.00 0.00 0.00 76 1019.7
20170325210915 78 122 3.0 12.0 0.00 0.00 0.00 76 1019.7
20170325210616 78 111 8.0 12.0 0.00 0.00 0.00 76 1019.7
20170325210316 79 153 7.0 14.0 0.00 0.00 0.00 75 1019.7
20170325210015 79 115 8.0 12.0 0.00 0.00 0.00 75 1019.6
20170325205716 79 125 7.0 12.0 0.00 0.00 0.00 73 1019.7
20170325205415 79 104 6.0 13.0 0.00 0.00 0.00 74 1019.7
20170325205116 79 127 1.0 13.0 0.00 0.00 0.00 75 1019.6
20170325204816 78 129 8.0 17.0 0.00 0.00 0.00 75 1019.7
20170325204516 78 78 9.0 9.0 0.00 0.00 0.00 74 1019.7
20170325204216 78 115 8.0 9.0 0.00 0.00 0.00 75 1019.8
20170325203916 79 82 3.0 14.0 0.00 0.00 0.00 75 1019.8
20170325203615 79 133 4.0 14.0 0.00 0.00 0.00 76 1019.9
20170325203316 79 120 5.0 11.0 0.00 0.00 0.00 76 1019.9
20170325203016 79 98 2.0 12.0 0.00 0.00 0.00 76 1019.9
20170325202716 79 116 6.0 12.0 0.00 0.00 0.00 76 1020.0
20170325202416 79 120 6.0 11.0 0.00 0.00 0.00 75 1020.0
20170325202116 79 111 5.0 11.0 0.00 0.00 0.00 76 1020.0
20170325201815 79 87 3.0 10.0 0.00 0.00 0.00 76 1020.0
20170325201516 79 147 3.0 13.0 0.00 0.00 0.00 75 1020.0
20170325201215 79 123 2.0 13.0 0.00 0.00 0.00 75 1020.1
20170325200915 79 140 9.0 12.0 0.00 0.00 0.00 77 1020.1
20170325200616 79 105 6.0 12.0 0.00 0.00 0.00 78 1020.1
20170325200315 78 105 7.0 12.0 0.00 0.00 0.00 77 1020.1
20170325200015 79 143 5.0 14.0 0.00 0.00 0.00 76 1020.1
20170325195716 79 92 7.0 14.0 0.00 0.00 0.00 77 1020.2
20170325195416 79 116 7.0 17.0 0.00 0.00 0.00 77 1020.2
20170325195116 79 129 7.0 17.0 0.00 0.00 0.00 75 1020.2
20170325194816 79 112 6.0 18.0 0.00 0.00 0.00 76 1020.2
20170325194516 79 132 12.0 15.0 0.00 0.00 0.00 76 1020.3
20170325194215 79 104 7.0 15.0 0.00 0.00 0.00 75 1020.3
20170325193916 79 116 9.0 15.0 0.00 0.00 0.00 74 1020.3
20170325193616 80 119 7.0 15.0 0.00 0.00 0.00 75 1020.4
20170325193316 79 122 7.0 14.0 0.00 0.00 0.00 75 1020.4
20170325193016 80 112 9.0 13.0 0.00 0.00 0.00 76 1020.4
20170325192716 79 115 7.0 13.0 0.00 0.00 0.00 77 1020.4
20170325192415 79 122 3.0 11.0 0.00 0.00 0.00 77 1020.5
20170325192116 79 133 6.0 11.0 0.00 0.00 0.00 76 1020.6
20170325191816 79 109 6.0 13.0 0.00 0.00 0.00 76 1020.7
20170325191515 79 129 6.0 16.0 0.00 0.00 0.00 74 1020.7
20170325191216 79 101 9.0 16.0 0.00 0.00 0.00 75 1020.6
20170325190916 79 144 8.0 12.0 0.00 0.00 0.00 76 1020.7
20170325190615 79 125 8.0 12.0 0.00 0.00 0.00 77 1020.7
20170325190315 80 105 4.0 15.0 0.00 0.00 0.00 77 1020.8
20170325190016 79 125 2.0 11.0 0.00 0.00 0.00 76 1020.8
20170325185716 79 113 7.0 11.0 0.00 0.00 0.00 76 1020.9
20170325185416 79 136 3.0 16.0 0.00 0.00 0.00 74 1021.0
20170325185116 79 136 6.0 16.0 0.00 0.00 0.00 76 1020.9
20170325184815 79 160 7.0 14.0 0.00 0.00 0.00 76 1021.0